TimeCST,TemperatureF,Dew PointF,Humidity,Sea Level PressureIn,VisibilityMPH,Wind Direction,Wind SpeedMPH,Gust SpeedMPH,PrecipitationIn,Events,Conditions,WindDirDegrees,DateUTC
12:14 AM,28.4,23.0,80,30.08,10.0,SSE,4.6,-,N/A,,Clear,160,2012-11-29 06:14:00
12:34 AM,26.6,21.2,80,30.07,10.0,Calm,Calm,-,N/A,,Clear,0,2012-11-29 06:34:00
12:54 AM,28.4,21.2,74,30.06,10.0,SSE,4.6,-,N/A,,Clear,160,2012-11-29 06:54:00
1:14 AM,28.4,21.2,74,30.06,10.0,South,3.5,-,N/A,,Clear,170,2012-11-29 07:14:00
1:34 AM,28.4,21.2,74,30.05,10.0,SSE,3.5,-,N/A,,Clear,160,2012-11-29 07:34:00
1:54 AM,28.4,23.0,80,30.05,10.0,South,4.6,-,N/A,,Clear,170,2012-11-29 07:54:00
2:14 AM,28.4,21.2,74,30.06,10.0,South,4.6,-,N/A,,Clear,180,2012-11-29 08:14:00
2:34 AM,28.4,21.2,74,30.06,10.0,South,3.5,-,N/A,,Clear,180,2012-11-29 08:34:00
2:54 AM,26.6,21.2,80,30.06,10.0,South,3.5,-,N/A,,Clear,180,2012-11-29 08:54:00
3:34 AM,26.6,21.2,80,30.05,10.0,Calm,Calm,-,N/A,,Clear,0,2012-11-29 09:34:00
3:54 AM,26.6,21.2,80,30.05,10.0,Calm,Calm,-,N/A,,Clear,0,2012-11-29 09:54:00
4:14 AM,26.6,21.2,80,30.04,10.0,South,4.6,-,N/A,,Clear,170,2012-11-29 10:14:00
4:34 AM,26.6,21.2,80,30.04,10.0,South,3.5,-,N/A,,Clear,180,2012-11-29 10:34:00
4:54 AM,24.8,21.2,86,30.04,10.0,South,3.5,-,N/A,,Clear,170,2012-11-29 10:54:00
5:14 AM,23.0,19.4,86,30.04,10.0,South,3.5,-,N/A,,Clear,170,2012-11-29 11:14:00
5:34 AM,23.0,21.2,93,30.04,10.0,Calm,Calm,-,N/A,,Clear,0,2012-11-29 11:34:00
5:54 AM,19.4,19.4,100,30.04,10.0,Calm,Calm,-,N/A,,Clear,0,2012-11-29 11:54:00
6:14 AM,19.4,17.6,93,30.05,10.0,Calm,Calm,-,N/A,,Clear,0,2012-11-29 12:14:00
6:34 AM,19.4,19.4,100,30.05,7.0,Calm,Calm,-,N/A,,Clear,0,2012-11-29 12:34:00
6:54 AM,19.4,17.6,93,30.05,7.0,Calm,Calm,-,N/A,,Clear,0,2012-11-29 12:54:00
7:14 AM,17.6,17.6,100,30.05,7.0,Calm,Calm,-,N/A,,Clear,0,2012-11-29 13:14:00
7:34 AM,17.6,15.8,93,30.05,7.0,Calm,Calm,-,N/A,,Clear,0,2012-11-29 13:34:00
7:54 AM,17.6,17.6,100,30.06,5.0,Calm,Calm,-,N/A,,Clear,0,2012-11-29 13:54:00
8:14 AM,19.4,17.6,93,30.06,7.0,Calm,Calm,-,N/A,,Clear,0,2012-11-29 14:14:00
8:35 AM,23.0,21.2,93,30.06,7.0,NE,3.5,-,N/A,,Clear,40,2012-11-29 14:35:00
8:54 AM,26.6,23.0,86,30.07,7.0,Calm,Calm,-,N/A,,Clear,0,2012-11-29 14:54:00
9:14 AM,26.6,24.8,93,30.06,7.0,NE,3.5,-,N/A,,Clear,50,2012-11-29 15:14:00
9:34 AM,30.2,24.8,80,30.06,7.0,Calm,Calm,-,N/A,,Clear,0,2012-11-29 15:34:00
10:14 AM,33.8,26.6,75,30.06,10.0,Calm,Calm,-,N/A,,Clear,0,2012-11-29 16:14:00
10:34 AM,33.8,26.6,75,30.06,10.0,NE,4.6,-,N/A,,Clear,50,2012-11-29 16:34:00
10:54 AM,35.6,26.6,70,30.05,10.0,East,5.8,-,N/A,,Clear,80,2012-11-29 16:54:00
11:14 AM,37.4,28.4,70,30.05,10.0,NE,5.8,-,N/A,,Clear,40,2012-11-29 17:14:00
11:34 AM,39.2,28.4,65,30.05,10.0,ENE,5.8,-,N/A,,Clear,70,2012-11-29 17:34:00
11:54 AM,39.2,28.4,65,30.04,10.0,East,8.1,-,N/A,,Clear,90,2012-11-29 17:54:00
12:15 PM,41.0,28.4,61,30.03,10.0,East,8.1,-,N/A,,Clear,90,2012-11-29 18:15:00
12:34 PM,41.0,28.4,61,30.03,10.0,East,9.2,-,N/A,,Clear,100,2012-11-29 18:34:00
12:54 PM,42.8,28.4,57,30.02,10.0,ENE,6.9,-,N/A,,Clear,70,2012-11-29 18:54:00
1:14 PM,42.8,28.4,57,30.02,10.0,East,9.2,-,N/A,,Clear,80,2012-11-29 19:14:00
1:34 PM,42.8,28.4,57,30.02,10.0,East,6.9,-,N/A,,Clear,90,2012-11-29 19:34:00
1:54 PM,42.8,28.4,57,30.02,10.0,NNE,8.1,-,N/A,,Clear,30,2012-11-29 19:54:00
2:14 PM,42.8,28.4,57,30.02,10.0,East,5.8,-,N/A,,Clear,80,2012-11-29 20:14:00
2:34 PM,42.8,28.4,57,30.01,10.0,ENE,8.1,-,N/A,,Clear,70,2012-11-29 20:34:00
2:54 PM,42.8,28.4,57,30.00,10.0,ENE,6.9,-,N/A,,Clear,70,2012-11-29 20:54:00
3:14 PM,42.8,28.4,57,30.01,10.0,ENE,8.1,-,N/A,,Clear,60,2012-11-29 21:14:00
3:35 PM,41.0,28.4,61,30.01,10.0,NE,6.9,-,N/A,,Clear,50,2012-11-29 21:35:00
3:54 PM,39.2,28.4,65,30.02,10.0,NE,5.8,-,N/A,,Clear,40,2012-11-29 21:54:00
4:14 PM,39.2,28.4,65,30.02,10.0,ENE,6.9,-,N/A,,Clear,60,2012-11-29 22:14:00
4:34 PM,37.4,26.6,65,30.02,10.0,NE,8.1,-,N/A,,Clear,40,2012-11-29 22:34:00
4:54 PM,37.4,26.6,65,30.03,10.0,NE,6.9,-,N/A,,Clear,40,2012-11-29 22:54:00
5:14 PM,35.6,26.6,70,30.03,10.0,NE,5.8,-,N/A,,Clear,50,2012-11-29 23:14:00
5:35 PM,35.6,26.6,70,30.03,10.0,NE,5.8,-,N/A,,Clear,50,2012-11-29 23:35:00
5:54 PM,35.6,26.6,70,30.04,10.0,NNE,6.9,-,N/A,,Clear,30,2012-11-29 23:54:00
6:14 PM,35.6,26.6,70,30.04,10.0,NE,8.1,-,N/A,,Clear,40,2012-11-30 00:14:00
6:34 PM,35.6,26.6,70,30.04,10.0,NNE,6.9,-,N/A,,Clear,30,2012-11-30 00:34:00
6:54 PM,35.6,26.6,70,30.05,10.0,NNE,5.8,-,N/A,,Clear,30,2012-11-30 00:54:00
7:14 PM,35.6,26.6,70,30.03,10.0,NE,11.5,-,N/A,,Clear,50,2012-11-30 01:14:00
7:34 PM,35.6,26.6,70,30.05,10.0,NE,6.9,-,N/A,,Clear,40,2012-11-30 01:34:00
7:55 PM,35.6,26.6,70,30.06,10.0,NNE,6.9,-,N/A,,Clear,30,2012-11-30 01:55:00
8:14 PM,33.8,26.6,75,30.07,10.0,NNE,9.2,-,N/A,,Clear,20,2012-11-30 02:14:00
8:34 PM,33.8,26.6,75,30.06,10.0,NNE,6.9,-,N/A,,Clear,30,2012-11-30 02:34:00
8:54 PM,33.8,26.6,75,30.05,10.0,NNE,8.1,-,N/A,,Clear,30,2012-11-30 02:54:00
9:14 PM,33.8,26.6,75,30.05,10.0,NE,9.2,-,N/A,,Clear,40,2012-11-30 03:14:00
9:34 PM,33.8,26.6,75,30.05,10.0,NE,8.1,-,N/A,,Clear,40,2012-11-30 03:34:00
9:54 PM,33.8,26.6,75,30.05,10.0,NNE,9.2,-,N/A,,Clear,30,2012-11-30 03:54:00
10:14 PM,32.0,26.6,80,30.05,10.0,NNE,6.9,-,N/A,,Clear,30,2012-11-30 04:14:00
10:34 PM,32.0,26.6,80,30.05,10.0,NNE,5.8,-,N/A,,Clear,30,2012-11-30 04:34:00
10:54 PM,32.0,26.6,80,30.05,10.0,NNE,5.8,-,N/A,,Clear,30,2012-11-30 04:54:00
11:15 PM,32.0,26.6,80,30.06,10.0,NNE,5.8,-,N/A,,Clear,20,2012-11-30 05:15:00
11:34 PM,32.0,26.6,80,30.05,10.0,NE,8.1,-,N/A,,Clear,40,2012-11-30 05:34:00
11:54 PM,32.0,26.6,80,30.04,10.0,NE,6.9,-,N/A,,Scattered Clouds,50,2012-11-30 05:54:00